Location: LDNL
(36.4545°S, 141.6685°E)
Time: 11:09:00
(UTC+10:00)

Vanguard 1 - Pass Details

Date: 18 August 2022
Orbit: 649 x 3832 km, 34.2° (Epoch: 30 September)

Event Time Altitude Azimuth Distance (km) Brightness Sun altitude
Rises 20:03:02 0° 263° (W) 3,636 14.4 -24.9°
Reaches altitude 10° 20:06:15 10° 274° (W) 2,394 13.1 -25.5°
Maximum altitude 20:10:41 28° 333° (NNW) 1,255 10.8 -26.4°
Enters shadow 20:11:25 27° 350° (N) 1,275 10.6 -26.6°
